User: anonymous   Login
Location: NJAA Observatory
(40.6819°N, 74.8979°W)
Time: 03:48:14
(UTC-05:00)
Language:

Cosmos 2237 Rocket - Orbit

View from above orbital plane
View from above orbital plane
View from above satellite
View from above satellite

Ground track
Ground track

The orbit data is extracted from the following two-line orbital elements,

1 22566U 93016B   16043.08378448 -.00000114  00000-0 -34268-4 0  9991
2 22566  71.0089  17.7535 0009761 174.6859 185.4369 14.14924754181804
Epoch (UTC): 12 February 2016 02:00:38
Eccentricity: 0.0009761
inclination: 71.0089°
perigee height: 835 km
apogee height: 849 km
right ascension of ascending node: 17.7535°
argument of perigee: 174.6859°
revolutions per day: 14.14924754
mean anomaly at epoch: 185.4369°
orbit number at epoch: 18180

The dashed part of the orbit path shows where the satellite is in the earth's shadow,  

DLR